TimeMDT,TemperatureF,Dew PointF,Humidity,Sea Level PressureIn,VisibilityMPH,Wind Direction,Wind SpeedMPH,Gust SpeedMPH,PrecipitationIn,Events,Conditions,WindDirDegrees,DateUTC
12:53 AM,37.9,33.1,83,29.89,10.0,North,-9999.0,-,N/A,,Partly Cloudy,0,2013-10-30 06:53:00
1:53 AM,37.0,33.1,86,29.91,10.0,Calm,Calm,-,N/A,,Clear,0,2013-10-30 07:53:00
2:53 AM,34.0,32.0,92,29.92,10.0,Calm,Calm,-,N/A,,Clear,0,2013-10-30 08:53:00
3:53 AM,34.0,32.0,92,29.93,10.0,Calm,Calm,-,N/A,,Scattered Clouds,0,2013-10-30 09:53:00
4:53 AM,32.0,30.9,96,29.93,10.0,SE,6.9,-,N/A,,Partly Cloudy,130,2013-10-30 10:53:00
5:53 AM,33.1,30.9,92,29.94,10.0,Calm,Calm,-,N/A,,Clear,0,2013-10-30 11:53:00
6:53 AM,32.0,30.0,92,29.96,10.0,SE,6.9,-,N/A,,Mostly Cloudy,140,2013-10-30 12:53:00
7:53 AM,32.0,30.0,92,29.97,10.0,SSE,5.8,-,N/A,,Overcast,150,2013-10-30 13:53:00
8:53 AM,35.1,30.9,85,29.98,10.0,SE,8.1,-,N/A,,Overcast,140,2013-10-30 14:53:00
9:53 AM,37.9,28.9,70,29.97,10.0,ESE,4.6,-,N/A,,Overcast,120,2013-10-30 15:53:00
11:53 AM,46.0,28.9,51,30.00,-9999.0,North,-9999.0,-,N/A,,Unknown,0,2013-10-30 17:53:00
12:53 PM,-9999,-9999,N/A,29.98,-9999.0,North,-9999.0,-,N/A,,Overcast,0,2013-10-30 18:53:00
1:53 PM,-9999,-9999,N/A,29.97,-9999.0,North,-9999.0,-,N/A,,Overcast,0,2013-10-30 19:53:00
2:53 PM,-9999,-9999,N/A,29.96,10.0,NE,3.5,-,N/A,,Overcast,50,2013-10-30 20:53:00
3:26 PM,39.0,32.0,76,29.97,2.5,NNW,6.9,-,0.04,Rain,Heavy Rain,330,2013-10-30 21:26:00
3:29 PM,37.9,32.0,79,29.98,1.5,North,3.5,-,0.06,Rain,Heavy Rain,350,2013-10-30 21:29:00
3:37 PM,37.0,32.0,82,29.98,2.0,SW,5.8,-,0.09,Rain,Heavy Rain,230,2013-10-30 21:37:00
3:45 PM,37.0,33.1,86,29.99,5.0,South,4.6,-,0.09,Rain,Light Rain,190,2013-10-30 21:45:00
3:53 PM,37.0,33.1,86,29.99,2.0,WNW,3.5,-,0.13,Rain,Heavy Rain,290,2013-10-30 21:53:00
3:58 PM,35.1,33.1,92,29.99,1.0,Calm,Calm,-,0.04,Rain,Heavy Rain,0,2013-10-30 21:58:00
4:04 PM,35.1,33.1,92,29.99,1.8,ESE,5.8,-,0.06,Rain,Light Rain,120,2013-10-30 22:04:00
4:06 PM,34.0,33.1,96,29.99,3.0,ESE,5.8,-,0.06,Rain,Light Rain,120,2013-10-30 22:06:00
4:29 PM,36.0,35.1,97,29.99,10.0,SE,4.6,-,0.06,,Overcast,130,2013-10-30 22:29:00
4:53 PM,37.0,35.1,93,29.99,10.0,SE,6.9,-,0.06,,Scattered Clouds,130,2013-10-30 22:53:00
5:53 PM,36.0,35.1,97,30.00,10.0,ESE,5.8,-,N/A,,Mostly Cloudy,120,2013-10-30 23:53:00
6:53 PM,37.0,35.1,93,30.01,10.0,South,5.8,-,0.00,Rain,Light Rain,180,2013-10-31 00:53:00
7:53 PM,36.0,34.0,93,30.02,10.0,South,5.8,-,0.00,,Mostly Cloudy,180,2013-10-31 01:53:00
8:53 PM,34.0,33.1,96,30.02,10.0,ESE,5.8,-,N/A,,Partly Cloudy,120,2013-10-31 02:53:00
9:53 PM,34.0,33.1,96,30.03,10.0,ESE,5.8,-,N/A,,Overcast,120,2013-10-31 03:53:00
10:53 PM,34.0,33.1,96,30.04,10.0,Calm,Calm,-,N/A,,Overcast,0,2013-10-31 04:53:00
11:53 PM,34.0,32.0,92,30.00,10.0,Calm,Calm,-,0.00,,Overcast,0,2013-10-31 05:53:00